User: anonymous   Login
Location: Caltech
(34.1382°N, 118.1253°W)
Time: 13:45:02
(UTC-07:00)
Language:

SEDSat Delta rocket - Orbit

View from above orbital plane
View from above orbital plane
View from above satellite
View from above satellite

Ground track
Ground track

The orbit data is extracted from the following two-line orbital elements,

1 25510U 98061C   16270.36562730  .00000292  00000-0  38336-4 0  9995
2 25510  31.4356 213.2797 0328776 261.6394 249.5040 14.37077696939333
Epoch (UTC): 26 September 2016 08:46:30
Eccentricity: 0.0328776
inclination: 31.4356°
perigee height: 533 km
apogee height: 1003 km
right ascension of ascending node: 213.2797°
argument of perigee: 261.6394°
revolutions per day: 14.37077696
mean anomaly at epoch: 249.5040°
orbit number at epoch: 93933

The dashed part of the orbit path shows where the satellite is in the earth's shadow,  

DLR